loading
DOY 175 | 2024-06-23T17:05:46Z

THOR ABLESTAR DEB, 334

Orbit data source: Space-Track

THOR ABLESTAR DEB, 334 is space debris in LEO originally from a launch on Thu, 29 Jun 1961 UTC launched from the Air Force Eastern Test Range (AFETR). Debris objects in space refer to the collection of defunct objects orbiting the Earth. Examples of debris include non-operational satellites, rocket bodies, and fragments generated from explosions, collisions, or faulty payload assembly.

Loading next visibility...
Loading greatness...
THOR ABLESTAR DEB details
NORAD ID334
COSPAR ID
1961-015DL
Orbit
LEO
Last TLE update19 hours ago
Origin
Flag of USUSAF SSD (US)
ManufacturerUnknown
BusUnknown
MotorUnknown
MassWet unknown, Dry mass unknown
Launch date (UTC)
1961-06-29 (63 years ago)
Launch vehicleUnknown
Launch site
Air Force Eastern Test Range (AFETR)
Object type
Payload
Rocket body
Debris
Radar Cross SectionSmall (<0.1 m²)
Predictive object data (real-time)
Latitude-61.48396°
Longitude-155.80317°
Altitude887.53 km
Speed7.438 km/s
Apparent Right ascension13h 25m 42s
Apparent Declination-76° 26' 55"
Sunlit
Object is in daylight
Predictive observer data (real-time)
Local Sidereal Time04:14:44
Azimuth166.05° S
Elevation-49.184°
Doppler factor1
Orbital elements
Apogee984.711 km
Perigee858.685 km
Semi-major axis7,299.835 km
Eccentricity0.0086321
Inclination66.9227°
RAAN145.9402°
Arg. of periapsis266.2703°
True anomaly93.83766°
Mean anomaly92.8503°
Mean motion3.47995 °/min
BSTAR0.000073122
Period103.45 mins
Definitive object data (Epoch: 2024-06-22T22:27:59.212Z)
Latitude-0.00007°
Longitude-102.64884°
Altitude929.082 km
Speed7.386 km/s
True Right ascension09h 43m 45s
True Declination0° 00' 00"
Sunlit
Object was in daylight at TLE epoch
TLE from 19 hours ago
0 THOR ABLESTAR DEB
1 00334U 61015DL  24174.93610200  .00000019  00000-0  73122-4 0  9991
2 00334  66.9227 145.9402 0086321 266.2703  92.8503 13.91516987195287
Epoch: 2024-06-22T22:27Z
No data available

THOR ABLESTAR DEB Visibility forecast

Observer location: 39.9160978°, -105.1181434, 0m alt.

THOR ABLESTAR DEB is not visible in the next 10 days
Span
Click to sort rows by Start time (UTC) header in descending order
Start Az.
Max El. time (UTC)
Max El. Az.
Max El.
End time (UTC)
End Az.